Preview of NWS' New Version of Forecast
This preview is not operational and should not be used for support decisions.

Regional Weather Roundup (RWR)

Issued by National Weather Service (NWS)

                            
000
ASUS43 KTOP 180008
RWRKS 

WEATHER ROUNDUP FOR KANSAS
NATIONAL WEATHER SERVICE GOODLAND KS
700 PM CDT WED APR 17 2019

NOTE:  "FAIR" INDICATES FEW OR NO CLOUDS BELOW 12,000 FEET WITH NO
SIGNIFICANT WEATHER AND/OR OBSTRUCTIONS TO VISIBILITY.

KSZ001>006-013>018-027>032-041>047-180100-
NORTHWEST KANSAS
  
CITY           SKY/WX    TMP DP  RH WIND       PRES   REMARKS
GOODLAND       MOSUNNY   64  32  30 N21G28    29.83S                  
6HR MIN TEMP:  61; 6HR MAX TEMP:  68;                                

HAYS           CLOUDY    67  43  41 N23G30    29.75R                  
HILL CITY      SUNNY     68  40  35 N17       29.79S                  
6HR MIN TEMP:  68; 6HR MAX TEMP:  76;                                

RUSSELL        CLOUDY    67  44  43 N22G31    29.73R                  
6HR MIN TEMP:  67; 6HR MAX TEMP:  78;                                

$$

KSZ061>065-074>080-084>089-180100-
SOUTHWEST KANSAS
  
CITY           SKY/WX    TMP DP  RH WIND       PRES   REMARKS
DODGE CITY     PTSUNNY   69  46  43 N23G31    29.70F                  
6HR MIN TEMP:  69; 6HR MAX TEMP:  79;                                

ELKHART        MOSUNNY   69  46  43 NE26      29.76R                  
GARDEN CITY    CLOUDY    66  41  40 N24G32    29.75R                  
6HR MIN TEMP:  66; 6HR MAX TEMP:  75;                                

GREAT BEND     CLOUDY    69  51  52 N23       29.70F                  
LIBERAL        CLOUDY    67  48  50 N17G26    29.72R                  
PRATT          CLOUDY    73  47  39 N21G30    29.62F                  
6HR MIN TEMP:  73; 6HR MAX TEMP:  80;                                

$$

KSZ066>073-081>083-090>101-180100-
SOUTHEAST KANSAS
  
CITY           SKY/WX    TMP DP  RH WIND       PRES   REMARKS
CHANUTE        SUNNY     76  63  64 S17G25    29.64F                  
6HR MIN TEMP:  76; 6HR MAX TEMP:  84;                                

COFFEYVILLE    PTSUNNY   74  63  68 S15       29.64F                  
6HR MIN TEMP:  74; 6HR MAX TEMP:  82;                                

HUTCHINSON     CLOUDY    74  51  44 N16G26    29.62F                  
6HR MIN TEMP:  71; 6HR MAX TEMP:  77;                                

MEDICINE LODGE   N/A     72  59  63 E8        29.63R                  
NEWTON         MOSUNNY   72  58  61 NE7       29.65R                  
PARSONS        MOSUNNY   74  64  71 S9        29.66F                  
6HR MIN TEMP:  74; 6HR MAX TEMP:  79;                                

WICHITA INTL   CLOUDY    74  57  55 N12       29.61F THUNDER          
6HR MIN TEMP:  74; 6HR MAX TEMP:  80;                                

WICHITA JABRA  CLOUDY    71  58  63 N13       29.60F                  
6HR MIN TEMP:  71; 6HR MAX TEMP:  79;                                

WICHITA MCCONL CLOUDY    73  57  56 NW12      29.62  THUNDER          
WINFIELD       CLOUDY    75  61  61 S9        29.62F                  
6HR MIN TEMP:  73; 6HR MAX TEMP:  82;                                

$$

KSZ007>012-019>026-033>040-048>060-102>105-180100-
NORTHEAST KANSAS
  
CITY           SKY/WX    TMP DP  RH WIND       PRES   REMARKS
CONCORDIA      MOSUNNY   68  48  48 N21G31    29.73R                  
6HR MIN TEMP:  68; 6HR MAX TEMP:  79;                                

EMPORIA        MOSUNNY   74  59  59 W3        29.64R                  
6HR MIN TEMP:  74; 6HR MAX TEMP:  81;                                

LAWRENCE       CLOUDY    73  60  63 NW7       29.62F                  
6HR MIN TEMP:  72; 6HR MAX TEMP:  79;                                

MANHATTAN      PTSUNNY   75  49  39 N12G22    29.65S                  
6HR MIN TEMP:  73; 6HR MAX TEMP:  81;                                

MARYSVILLE     MOSUNNY   66  50  55 N20G28    29.71R                  
OLATHE IND     CLOUDY    73  62  68 E3        29.63F                  
6HR MIN TEMP:  70; 6HR MAX TEMP:  78;                                

OLATHE EXE     CLOUDY    73  63  70 VRB5      29.64F                  
6HR MIN TEMP:  69; 6HR MAX TEMP:  76;                                

SALINA         SUNNY     72  49  44 N18G26    29.68R                  
6HR MIN TEMP:  72; 6HR MAX TEMP:  80;                                

TOPEKA BILLARD CLOUDY    76  58  53 NW10      29.62F                  
6HR MIN TEMP:  72; 6HR MAX TEMP:  77;                                

TOPEKA FORBES  PTSUNNY   74  58  57 NW9       29.62F                  
6HR MIN TEMP:  72; 6HR MAX TEMP:  80;                                

$$